Regional Weather Roundup
Issued by NWS Columbia, SC

Home | Current Version | Previous Version | Text Only | Print | Product List | Glossary On
Versions: 1 2 3 4 5 6 7 8 9 10 11 12 13 14 15 16 17 18 19 20 21 22 23 24 25 26 27 28 29
000
ASUS42 KCAE 250410
RWRCAE
REGIONAL WEATHER ROUNDUP
NATIONAL WEATHER SERVICE COLUMBIA SC
1200 AM EDT SAT OCT 25 2014

NOTE: "FAIR" INDICATES FEW OR NO CLOUDS BELOW 12,000 FEET WITH NO
SIGNIFICANT WEATHER AND/OR OBSTRUCTIONS TO VISIBILITY.

NOT ALL STATIONS ARE QUALITY CONTROLLED BY THE NATIONAL
WEATHER SERVICE. USE DATA WITH CAUTION...ESPECIALLY
DEWPOINT OBSERVATIONS.

SCZ001>056-GAZ040-063>065-077-250500-
...UPSTATE SOUTH CAROLINA...

CITY           SKY/WX    TMP DP  RH WIND       PRES   REMARKS
ANDERSON       CLEAR     49  46  90 CALM      30.02S
LIBERTY        FAIR      45  45  99 MISG      30.03S
SPARTANBURG    FAIR      50  50 100 CALM      30.02S
CLEMSON        CLEAR     55  50  83 CALM      30.04S
GREENVILLE     CLEAR     57  39  51 N3        30.03F
GREENWOOD      CLEAR     47  45  93 CALM      30.03F
GREER          CLEAR     51  45  79 NE3       30.01F
ROCK HILL      CLEAR     44  42  93 CALM      30.02F
LAURENS        FAIR      46 N/A N/A W3        30.03F


...CENTRAL SOUTH CAROLINA...

CITY           SKY/WX    TMP DP  RH WIND       PRES   REMARKS
COLUMBIA APT   CLEAR     49  45  86 CALM      30.02S
COLUMBIA OWENS CLEAR     51  47  86 CALM      30.03S
DARLINGTON     CLEAR     48  45  87 CALM      30.02F
FLORENCE       CLEAR     56  50  80 NW3       30.00F
MCENTIRE ANGB  CLEAR     47  47  98 NW2       30.02S
ORANGEBURG     CLEAR     52  49  89 CALM      30.01F
SUMTER SHAW    CLEAR     51  48  89 CALM      30.00S
NEWBERRY       FAIR      45 N/A N/A CALM      30.05F
AIKEN          FAIR      46  46 100 CALM      30.05F
BARNWELL       FAIR      48  46  93 CALM      30.02F
MANNING        FAIR      54 N/A N/A CALM      30.01F
CAMDEN         FAIR      52  50  93 CALM      30.03S
LANCASTER      RAIN      48  48 100 CALM      30.02F
WINNSBORO      FAIR      50  45  81 N3        30.01F


...EASTERN AND COASTAL SOUTH CAROLINA...

CITY           SKY/WX    TMP DP  RH WIND       PRES   REMARKS
MYRTLE BEACH   MOCLDY    55  50  82 N6        29.99F
N MYRTLE BCH   MOCLDY    54  52  93 CALM      30.00R
CONWAY         FAIR      52  52 100 CALM      30.00S
MARION         FAIR      52  52 100 CALM      30.01S
FLORENCE       CLEAR     56  50  80 NW3       30.00F
DARLINGTON     CLEAR     48  45  87 CALM      30.02F
CHARLESTON APT CLOUDY    58  51  78 CALM      30.01R
MOUNT PLEASANT FAIR      55  54  94 CALM      30.00S
WALTERBORO     PTCLDY    54 N/A N/A CALM      30.02S
BEAUFORT       PTCLDY    56  51  84 SW3       30.01S


...EASTERN GEORGIA...

CITY           SKY/WX    TMP DP  RH WIND       PRES   REMARKS
AUGUSTA BUSH F CLEAR     46  43  89 CALM      30.02F
AUGUSTA DANIEL CLEAR     59  46  62 CALM      30.02F
THOMSON        CLEAR     50  50 100 CALM      30.06F
WASHINGTON     FAIR      54  54 100 CALM      30.01F
CLAXTON        FAIR      50  50 100 CALM      30.02S
SYLVANIA       CLEAR     55  53  95 CALM      30.03R
SAVANNAH       PTCLDY    52  48  86 CALM      30.02S


...SOUTHERN NORTH CAROLINA...

CITY           SKY/WX    TMP DP  RH WIND       PRES   REMARKS
CHARLOTTE      CLEAR     50  45  83 CALM      30.02F
MONROE         CLEAR     48  45  89 CALM      30.01F
WADESBORO      CLEAR    N/A N/A N/A CALM      30.02S
ROCKINGHAM     CLEAR     51  48  88 CALM      30.01F
RUTHERFORDTON  CLEAR     49  42  78 NW3       30.04F
ASHEVILLE      CLEAR     48  38  68 NW7       30.08R

$$



USA.gov is the U.S. government's official web portal to all federal, state and local government web resources and services.